[Iaude] MPEC J44: 2020 JP [a=3.42,e=0.68,i=21.4,H=21.1]

mpec at marsden.cfa.harvard.edu mpec at marsden.cfa.harvard.edu
Wed May 6 22:58:10 EDT 2020


M.P.E.C. 2020-J44                                   Issued 2020 May 7, 02:56 UT

     The Minor Planet Electronic Circulars contain information on unusual
         minor planets and routine data on comets.  They are published
    on behalf of Division F of the International Astronomical Union by the
          Minor Planet Center, Smithsonian Astrophysical Observatory,
                          Cambridge, MA 02138, U.S.A.

             Prepared using the Tamkin Foundation Computer Network

                              MPC at CFA.HARVARD.EDU
            URL https://www.minorplanetcenter.net/    ISSN 1523-6714

                                    2020 JP                                     


Observations:
     K20J00P* C2020 05 04.52436217 58 05.03 -16 26 18.2          18.16oVEJ044T05
     K20J00P  C2020 05 04.52665017 58 06.10 -16 25 50.6          18.04oVEJ044T05
     K20J00P  C2020 05 04.53725917 58 11.41 -16 23 42.3          17.50oVEJ044T05
     K20J00P IC2020 05 04.96616918 01 55.41 -14 56 54.3          19.0 GVEJ044L01
     K20J00P KC2020 05 04.96803518 01 56.31 -14 56 30.8          19.1 GVEJ044L01
     K20J00P IC2020 05 05.04637818 02 35.23 -14 40 37.7          19.0 GVEJ044L01
     K20J00P KC2020 05 05.04796718 02 36.02 -14 40 18.4          18.8 GVEJ044L01
     K20J00P IC2020 05 05.04954818 02 36.78 -14 39 59.5          19.0 GVEJ044L01
     K20J00P IC2020 05 05.05114318 02 37.60 -14 39 40.0          18.8 GVEJ044L01
     K20J00P KC2020 05 05.05285418 02 38.44 -14 39 18.7          19.0 GVEJ044L01
     K20J00P  C2020 05 05.37157 18 05 21.71 -13 34 10.9          17.9 GVEJ044I52
     K20J00P  C2020 05 05.37237 18 05 22.10 -13 34 01.0          17.6 GVEJ044I52
     K20J00P  C2020 05 05.37317 18 05 22.33 -13 33 55.4                VEJ044I52
     K20J00P  C2020 05 05.37397 18 05 22.69 -13 33 44.7          17.4 GVEJ044I52
     K20J00P KC2020 05 06.04238 18 10 56.84 -11 17 24.1          18.3 GVEJ044A17
     K20J00P KC2020 05 06.05612 18 11 03.41 -11 14 36.0          18.0 GVEJ044A17
     K20J00P KC2020 05 06.06608 18 11 08.08 -11 12 33.9          18.4 GVEJ044A17
     K20J00P  C2020 05 06.32706 18 13 18.00 -10 19 04.1                VEJ044I52
     K20J00P  C2020 05 06.32867 18 13 18.73 -10 18 44.8                VEJ044I52
     K20J00P  C2020 05 06.32946 18 13 19.09 -10 18 34.7          17.6 GVEJ044I52
     K20J00P KC2020 05 06.98229118 18 33.33 -08 05 59.3          17.0 GVEJ044K63
     K20J00P KC2020 05 06.98980118 18 36.72 -08 04 28.1          16.0 GVEJ044K63
     K20J00P KC2020 05 06.99791218 18 40.45 -08 02 49.6          17.4 GVEJ044K63
     K20J00P KC2020 05 07.01876018 18 50.22 -07 58 42.0          18.7 GVEJ044J95
     K20J00P KC2020 05 07.02546518 18 53.37 -07 57 20.8          18.4 GVEJ044J95
     K20J00P KC2020 05 07.03345418 18 57.01 -07 55 43.1          18.5 GVEJ044J95
     K20J00P KC2020 05 07.03452 18 18 57.69 -07 55 26.2                qEJ044I93
     K20J00P KC2020 05 07.04221918 19 01.03 -07 53 57.3          18.3 GVEJ044J95
     K20J00P KC2020 05 07.04544 18 19 02.73 -07 53 14.1          18.2 VqEJ044I93
     K20J00P KC2020 05 07.05844 18 19 08.63 -07 50 36.1          18.8 VqEJ044I93

Observer details:
A17 Guidestar Observatory, Weinheim.  Observers M. Emmerich, S. Melchert.  
    0.36-m f/6 Schmidt-Cassegrain + CCD.
I52 Steward Observatory, Mt. Lemmon Station.  Observer R. A. Kowalski.  
    Measurers E. J. Christensen, G. A. Farneth, D. C. Fuls, A. R. Gibbs, A. D. 
   Grauer, H. Groeller, R. A. Kowalski, S. M. Larson, G. J. Leonard, T. A. 
   Pruyne, D. Rankin, R. L. Seaman, F. C. Shelly, K. W. Wierzchos.  1.0-m 
   reflector + CCD.
I93 St Pardon de Conques.  Observer F. Losse.  0.40-m f/3.7 reflector + CCD.
J95 Great Shefford.  Observer P. Birtwhistle.  0.41-m f/6.3 Schmidt-Cassegrain 
   + CCD.
K63 G. Pascoli Observatory, Castelvecchio Pascoli.  Observer R. Bacci.  0.4-m 
   f/3.2 Newtonian reflector + CCD.
L01 Visnjan Observatory, Tican.  Observer K. Korlevic.  1.0-m f/2.9 reflector + 
   CCD.
T05 ATLAS-HKO, Haleakala.  Observers L. Denneau, J. Tonry, A. Heinze, H. 
   Weiland, H. Flewelling.  Measurers L. Denneau, J. Tonry, A. Heinze, H. 
   Weiland, H. Flewelling, B. Stalder, A. Fitzsimmons, J. Robinson, N. Erasmus. 
    0.5-m reflector + CCD.

Orbital elements:
2020 JP                                                  Earth MOID = 0.0945 AU
Epoch 2020 May 31.0 TT = JDT 2459000.5                  Veres
M   1.79603              (2000.0)            P               Q
n   0.15559722     Peri.   18.97643     -0.42463910     +0.86517119
a   3.4234829      Node   226.92959     -0.87071235     -0.47099215
e   0.6828665      Incl.   21.41779     -0.24807588     +0.17217782
P   6.33           H   21.1           G   0.15           U   8
Residuals in seconds of arc
200504 T05  0.2+  0.1+    200505 I52  0.5+  0.4+    200506 K63  0.8+  0.4+
200504 T05  0.8-  0.0     200505 I52  0.5+  0.6+    200506 K63  0.2-  0.6+
200504 T05  0.1-  0.3-    200505 I52  1.8-  3.6-    200506 K63  0.2-  0.7+
200504 L01  0.4+  0.3+    200505 I52  2.2-  2.7-    200507 J95  0.3-  0.3-
200504 L01  0.0   1.1+    200506 A17  0.1-  0.3+    200507 J95  0.5+  0.4-
200505 L01  0.4+  0.6+    200506 A17  0.3+  0.3+    200507 J95  0.1-  0.4+
200505 L01  0.5+  0.5+    200506 A17  0.7-  0.6+    200507 I93  0.2-  0.2-
200505 L01  0.2+  0.1+    200506 I52  1.0+  0.5+    200507 J95  0.3-  0.0
200505 L01  0.7+  0.2+    200506 I52  0.6+  0.2+    200507 I93  0.4+  0.4-
200505 L01  0.6+  0.6+    200506 I52  0.5+  0.7+    200507 I93  0.2-  0.1-

Ephemeris:
2020 JP                  a,e,i = 3.42, 0.68, 21                  q = 1.0857
Date    TT    R. A. (2000) Decl.     Delta      r    Elong.  Phase     V
2020 04 07    13 58 54.7 -53 42 39   0.3058  1.2262   131.8    37.5    20.5
...
2020 04 22    15 54 44.0 -46 37 55   0.1831  1.1476   137.9    36.0    19.2
...
2020 04 30    17 15 48.6 -30 36 33   0.1411  1.1175   138.8    36.4    18.6
...
2020 05 06    18 10 34.3 -11 25 16   0.1317  1.1011   131.9    43.0    18.6
2020 05 07    18 18 39.0 -08 01 44   0.1324  1.0989   130.0    44.7    18.6
2020 05 08    18 26 23.9 -04 40 58   0.1337  1.0969   128.1    46.4    18.7
...
2020 05 14    19 06 00.6 +12 55 16   0.1527  1.0882   116.9    56.0    19.2
...
2020 05 22    19 42 55.6 +27 59 47   0.1975  1.0863   106.9    63.1    20.0
...
2020 06 06    20 20 27.5 +40 35 41   0.2993  1.1116   101.0    63.6    21.0

M. P. C. Staff               (C) Copyright 2020 MPC           M.P.E.C. 2020-J44




More information about the Iaude mailing list